Zurück zum Katalog

FENGYUN 1C DEB

AktivPO
NORAD 35169·DEBRIS·🇨🇳 China

Gestartet May 10, 1999 von Taiyuan Satellite Launch Center

Loading…

Nächste Überflüge (nächste 24 Stunden)

TLE

VeraltetSource: Space-Track

Epoche: Aug 29, 2026, 12:05 UTC

1 35169U 99025DMZ 26241.50400413  .00003266  00000-0  59127-3 0  9995
2 35169  99.1076 155.6772 0149416  39.7338 321.4691 14.60135205695697

Verfolge FENGYUN 1C DEB in Echtzeit mit AllMySat

Download on the App Store